START_TIME,STEP,MOV.,M6,t_acc.,M7,t_acc.,M19,t_acc.,H36,t_acc.
1979-07-18 03:00:27.050 ,1,0,0.,12.0,0.,12.0,0.,12.0,0.,12.0
1979-07-18 03:00:39.050 ,1,0,0.,12.0,0.,12.0,0.,12.0,0.,12.0
1979-07-18 03:00:51.050 ,2,1,1.,12.0,0.,12.0,0.,12.0,0.,12.0
1979-07-18 03:01:03.050 ,2,1,0.,12.0,0.,12.0,0.,12.0,0.,12.0
1979-07-18 03:01:15.050 ,2,0,0.,12.0,0.,12.0,0.,12.0,0.,12.0
1979-07-18 03:01:27.050 ,2,0,0.,12.0,0.,12.0,0.,12.0,0.,12.0
1979-07-18 03:01:39.050 ,3,1,0.,12.0,0.,12.0,0.,12.0,0.,12.0
1979-07-18 03:01:51.050 ,3,1,0.,12.0,0.,12.0,0.,12.0,0.,12.0
1979-07-18 03:02:03.050 ,3,0,0.,12.0,0.,12.0,0.,12.0,0.,12.0
1979-07-18 03:02:15.050 ,3,0,0.,12.0,0.,12.0,0.,12.0,0.,12.0
1979-07-18 03:02:27.050 ,4,1,0.,12.0,0.,12.0,0.,12.0,0.,12.0
1979-07-18 03:02:39.050 ,4,1,0.,12.0,0.,12.0,0.,12.0,0.,12.0
1979-07-18 03:02:51.050 ,4,0,0.,12.0,0.,12.0,0.,12.0,0.,12.0
1979-07-18 03:03:03.050 ,4,0,0.,12.0,0.,12.0,0.,12.0,0.,12.0
1979-07-18 03:03:15.050 ,5,1,0.,12.0,0.,12.0,0.,12.0,0.,12.0
1979-07-18 03:03:27.050 ,5,1,0.,12.0,0.,12.0,0.,12.0,0.,12.0
1979-07-18 03:03:39.050 ,5,0,0.,12.0,0.,12.0,0.,12.0,0.,12.0
1979-07-18 03:03:51.050 ,5,0,0.,12.0,0.,12.0,0.,12.0,0.,12.0
1979-07-18 03:04:03.050 ,6,1,0.,12.0,0.,12.0,0.,12.0,0.,12.0
1979-07-18 03:04:15.050 ,6,1,0.,12.0,0.,12.0,0.,12.0,0.,12.0
1979-07-18 03:04:27.050 ,6,0,0.,12.0,0.,12.0,0.,12.0,0.,12.0
1979-07-18 03:04:39.050 ,6,0,0.,12.0,0.,12.0,0.,12.0,0.,12.0
1979-07-18 03:04:51.050 ,7,1,0.,12.0,0.,12.0,0.,12.0,0.,12.0
1979-07-18 03:05:03.050 ,7,1,0.,12.0,0.,12.0,0.,12.0,0.,12.0
1979-07-18 03:05:15.050 ,7,0,0.,12.0,0.,12.0,0.,12.0,0.,12.0
1979-07-18 03:05:27.050 ,7,0,0.,12.0,0.,12.0,0.,12.0,0.,12.0
1979-07-18 03:05:39.050 ,7,1,0.,12.0,0.,12.0,0.,12.0,0.,12.0
1979-07-18 03:05:51.050 ,7,1,0.,12.0,0.,12.0,0.,12.0,0.,12.0
1979-07-18 03:06:03.050 ,7,0,0.,12.0,0.,12.0,0.,12.0,0.,12.0
1979-07-18 03:06:15.050 ,7,0,0.,12.0,0.,12.0,0.,12.0,0.,12.0
1979-07-18 03:06:27.050 ,6,1,0.,12.0,0.,12.0,0.,12.0,0.,12.0
1979-07-18 03:06:39.050 ,6,1,0.,12.0,0.,12.0,0.,12.0,0.,12.0
1979-07-18 03:06:51.050 ,6,0,0.,12.0,0.,12.0,0.,12.0,0.,12.0
1979-07-18 03:07:03.050 ,6,0,0.,12.0,0.,12.0,0.,12.0,0.,12.0
1979-07-18 03:07:15.050 ,5,1,0.,12.0,0.,12.0,0.,12.0,0.,12.0
1979-07-18 03:07:27.050 ,5,1,0.,12.0,0.,12.0,0.,12.0,0.,12.0
1979-07-18 03:07:39.050 ,5,0,0.,12.0,0.,12.0,0.,12.0,0.,12.0
1979-07-18 03:07:51.050 ,5,0,0.,12.0,0.,12.0,0.,12.0,0.,12.0
1979-07-18 03:08:03.050 ,4,1,0.,12.0,0.,12.0,0.,12.0,0.,12.0
1979-07-18 03:08:15.050 ,4,1,0.,12.0,0.,12.0,0.,12.0,0.,12.0
1979-07-18 03:08:27.050 ,4,0,0.,12.0,0.,12.0,0.,12.0,0.,12.0
1979-07-18 03:08:39.050 ,4,0,0.,12.0,0.,12.0,0.,12.0,0.,12.0
1979-07-18 03:08:51.050 ,3,1,0.,12.0,0.,12.0,0.,12.0,0.,12.0
1979-07-18 03:09:03.050 ,3,1,0.,12.0,0.,12.0,0.,12.0,0.,12.0
1979-07-18 03:09:15.050 ,3,0,0.,12.0,0.,12.0,0.,12.0,0.,12.0
1979-07-18 03:09:27.050 ,3,0,0.,12.0,0.,12.0,0.,12.0,0.,12.0
1979-07-18 03:09:39.050 ,2,1,0.,12.0,0.,12.0,0.,12.0,0.,12.0
1979-07-18 03:09:51.050 ,2,1,0.,12.0,0.,12.0,0.,12.0,0.,12.0
1979-07-18 03:10:03.050 ,2,0,0.,12.0,0.,12.0,0.,12.0,0.,12.0
1979-07-18 03:10:15.050 ,2,0,0.,12.0,0.,12.0,0.,12.0,0.,12.0
1979-07-18 03:10:27.050 ,1,1,0.,12.0,0.,12.0,0.,12.0,0.,12.0
1979-07-18 03:10:39.050 ,1,1,0.,12.0,0.,12.0,0.,12.0,0.,12.0
1979-07-18 03:10:51.050 ,1,0,0.,12.0,0.,12.0,0.,12.0,0.,12.0
1979-07-18 03:11:03.050 ,1,0,0.,12.0,0.,12.0,0.,12.0,0.,12.0
1979-07-18 03:11:15.050 ,0,1,0.,12.0,0.,12.0,0.,12.0,0.,12.0
1979-07-18 03:11:27.050 ,0,1,0.,12.0,0.,12.0,0.,12.0,0.,12.0
1979-07-18 03:11:39.050 ,0,0,0.,12.0,0.,12.0,0.,12.0,0.,12.0
1979-07-18 03:11:51.050 ,0,0,0.,12.0,0.,12.0,0.,12.0,0.,12.0
1979-07-18 03:12:03.050 ,0,1,0.,12.0,0.,12.0,0.,12.0,0.,12.0
1979-07-18 03:12:15.050 ,0,1,0.,12.0,0.,12.0,0.,12.0,0.,12.0
1979-07-18 03:12:27.050 ,0,0,0.,12.0,0.,12.0,0.,12.0,0.,12.0
1979-07-18 03:12:39.050 ,0,0,0.,12.0,0.,12.0,0.,12.0,0.,12.0
1979-07-18 03:12:51.050 ,1,1,0.,12.0,0.,12.0,0.,12.0,0.,12.0
1979-07-18 03:13:03.050 ,1,1,0.,12.0,0.,12.0,0.,12.0,0.,12.0
1979-07-18 03:13:15.050 ,1,0,0.,12.0,0.,12.0,0.,12.0,0.,12.0
1979-07-18 03:13:27.050 ,1,0,0.,12.0,0.,12.0,0.,12.0,0.,12.0
1979-07-18 03:13:39.050 ,2,1,0.,12.0,0.,12.0,0.,12.0,0.,12.0
1979-07-18 03:13:51.050 ,2,1,0.,12.0,0.,12.0,0.,12.0,0.,12.0
1979-07-18 03:14:03.050 ,2,0,0.,12.0,0.,12.0,0.,12.0,0.,12.0
1979-07-18 03:14:15.050 ,2,0,0.,12.0,0.,12.0,0.,12.0,0.,12.0
1979-07-18 03:14:27.050 ,3,1,0.,12.0,0.,12.0,0.,12.0,0.,12.0
1979-07-18 03:14:39.050 ,3,1,0.,12.0,0.,12.0,0.,12.0,0.,12.0
1979-07-18 03:14:51.050 ,3,0,0.,12.0,0.,12.0,0.,12.0,0.,12.0
1979-07-18 03:15:03.050 ,3,0,0.,12.0,0.,12.0,0.,12.0,0.,12.0
1979-07-18 03:15:15.050 ,4,1,0.,12.0,0.,12.0,0.,12.0,0.,12.0
1979-07-18 03:15:27.050 ,4,1,0.,12.0,0.,12.0,0.,12.0,0.,12.0
1979-07-18 03:15:39.050 ,4,0,0.,12.0,0.,12.0,0.,12.0,0.,12.0
1979-07-18 03:15:51.050 ,4,0,0.,12.0,0.,12.0,0.,12.0,0.,12.0
1979-07-18 03:16:03.050 ,5,1,0.,12.0,0.,12.0,0.,12.0,0.,12.0
1979-07-18 03:16:15.050 ,5,1,0.,12.0,0.,12.0,0.,12.0,0.,12.0
1979-07-18 03:16:27.050 ,5,0,0.,12.0,0.,12.0,0.,12.0,0.,12.0
1979-07-18 03:16:39.050 ,5,0,0.,12.0,0.,12.0,0.,12.0,0.,12.0
1979-07-18 03:16:51.050 ,6,1,0.,12.0,0.,12.0,0.,12.0,0.,12.0
1979-07-18 03:17:03.050 ,6,1,0.,12.0,0.,12.0,0.,12.0,0.,12.0
1979-07-18 03:17:15.050 ,6,0,0.,12.0,0.,12.0,0.,12.0,0.,12.0
1979-07-18 03:17:27.050 ,6,0,0.,12.0,0.,12.0,0.,12.0,0.,12.0
1979-07-18 03:17:39.050 ,7,1,0.,12.0,0.,12.0,0.,12.0,0.,12.0
1979-07-18 03:17:51.050 ,7,1,0.,12.0,0.,12.0,0.,12.0,0.,12.0
1979-07-18 03:18:03.050 ,7,0,0.,12.0,0.,12.0,0.,12.0,0.,12.0
1979-07-18 03:18:15.050 ,7,0,0.,12.0,0.,12.0,0.,12.0,0.,12.0
1979-07-18 03:18:03.050 ,7,0,0.,12.0,0.,12.0,0.,12.0,0.,12.0
1979-07-18 03:18:15.050 ,7,0,0.,12.0,0.,12.0,0.,12.0,0.,12.0
1979-07-18 03:18:27.050 ,7,1,0.,12.0,0.,12.0,0.,12.0,0.,12.0
1979-07-18 03:18:39.050 ,7,1,0.,12.0,0.,12.0,0.,12.0,0.,12.0
1979-07-18 03:18:51.050 ,7,0,0.,12.0,0.,12.0,0.,12.0,0.,12.0
1979-07-18 03:19:03.050 ,7,0,0.,12.0,0.,12.0,0.,12.0,0.,12.0
1979-07-18 03:19:15.050 ,6,1,0.,12.0,0.,12.0,0.,12.0,0.,12.0
1979-07-18 03:19:27.050 ,6,1,0.,12.0,0.,12.0,0.,12.0,0.,12.0
1979-07-18 03:19:39.050 ,6,0,0.,12.0,0.,12.0,0.,12.0,0.,12.0
1979-07-18 03:19:51.050 ,6,0,0.,12.0,0.,12.0,0.,12.0,0.,12.0
1979-07-18 03:20:03.050 ,5,1,0.,12.0,0.,12.0,0.,12.0,0.,12.0
1979-07-18 03:20:15.050 ,5,1,0.,12.0,0.,12.0,0.,12.0,0.,12.0
1979-07-18 03:20:27.050 ,5,0,0.,12.0,0.,12.0,0.,12.0,0.,12.0
1979-07-18 03:20:39.050 ,5,0,1.,12.0,0.,12.0,0.,12.0,0.,12.0
1979-07-18 03:20:51.050 ,4,1,0.,12.0,0.,12.0,0.,12.0,0.,12.0
1979-07-18 03:21:03.050 ,4,1,0.,12.0,0.,12.0,0.,12.0,0.,12.0
1979-07-18 03:21:15.050 ,4,0,0.,12.0,0.,12.0,0.,12.0,0.,12.0
1979-07-18 03:21:27.050 ,4,0,0.,12.0,0.,12.0,0.,12.0,0.,12.0
1979-07-18 03:21:39.050 ,3,1,0.,12.0,0.,12.0,0.,12.0,0.,12.0
1979-07-18 03:21:51.050 ,3,1,0.,12.0,0.,12.0,0.,12.0,0.,12.0
1979-07-18 03:22:03.050 ,3,0,0.,12.0,0.,12.0,0.,12.0,0.,12.0
1979-07-18 03:22:15.050 ,3,0,0.,12.0,0.,12.0,0.,12.0,0.,12.0
1979-07-18 03:22:27.050 ,2,1,0.,12.0,0.,12.0,0.,12.0,0.,12.0
1979-07-18 03:22:39.050 ,2,1,0.,12.0,0.,12.0,0.,12.0,0.,12.0
1979-07-18 03:22:51.050 ,2,0,0.,12.0,0.,12.0,0.,12.0,0.,12.0
1979-07-18 03:23:03.050 ,2,0,0.,12.0,0.,12.0,0.,12.0,0.,12.0
1979-07-18 03:23:15.050 ,1,1,0.,12.0,0.,12.0,0.,12.0,0.,12.0
1979-07-18 03:23:27.050 ,1,1,0.,12.0,0.,12.0,0.,12.0,0.,12.0
1979-07-18 03:23:39.050 ,1,0,0.,12.0,0.,12.0,0.,12.0,0.,12.0
1979-07-18 03:23:51.050 ,1,0,0.,12.0,0.,12.0,0.,12.0,0.,12.0
1979-07-18 03:24:03.050 ,0,1,0.,12.0,0.,12.0,0.,12.0,0.,12.0
1979-07-18 03:24:15.050 ,0,1,0.,12.0,0.,12.0,0.,12.0,0.,12.0
1979-07-18 03:24:27.050 ,0,0,0.,12.0,0.,12.0,0.,12.0,0.,12.0
1979-07-18 03:24:39.050 ,0,0,0.,12.0,0.,12.0,0.,12.0,0.,12.0
1979-07-18 03:24:51.050 ,0,1,0.,12.0,0.,12.0,0.,12.0,0.,12.0
1979-07-18 03:25:03.050 ,0,1,0.,12.0,0.,12.0,0.,12.0,0.,12.0
1979-07-18 03:25:15.050 ,0,0,0.,12.0,0.,12.0,0.,12.0,0.,12.0
1979-07-18 03:25:27.050 ,0,0,0.,12.0,0.,12.0,0.,12.0,0.,12.0
1979-07-18 03:25:39.050 ,1,1,0.,12.0,0.,12.0,0.,12.0,0.,12.0
1979-07-18 03:25:51.050 ,1,1,1.,12.0,0.,12.0,0.,12.0,0.,12.0
1979-07-18 03:26:03.050 ,1,0,0.,12.0,0.,12.0,0.,12.0,0.,12.0
1979-07-18 03:26:15.050 ,1,0,0.,12.0,0.,12.0,0.,12.0,0.,12.0
1979-07-18 03:26:27.050 ,2,1,0.,12.0,0.,12.0,0.,12.0,0.,12.0
1979-07-18 03:26:39.050 ,2,1,0.,12.0,0.,12.0,0.,12.0,0.,12.0
1979-07-18 03:26:51.050 ,2,0,0.,12.0,0.,12.0,0.,12.0,0.,12.0
1979-07-18 03:27:03.050 ,2,0,0.,12.0,0.,12.0,0.,12.0,0.,12.0
1979-07-18 03:27:15.050 ,3,1,0.,12.0,0.,12.0,0.,12.0,0.,12.0
1979-07-18 03:27:27.050 ,3,1,0.,12.0,0.,12.0,0.,12.0,0.,12.0
1979-07-18 03:27:39.050 ,3,0,0.,12.0,0.,12.0,0.,12.0,0.,12.0
1979-07-18 03:27:51.050 ,3,0,0.,12.0,0.,12.0,0.,12.0,0.,12.0
1979-07-18 03:28:03.050 ,4,1,0.,12.0,0.,12.0,0.,12.0,0.,12.0
1979-07-18 03:28:15.050 ,4,1,0.,12.0,0.,12.0,0.,12.0,0.,12.0
1979-07-18 03:28:27.050 ,4,0,0.,12.0,0.,12.0,0.,12.0,0.,12.0
1979-07-18 03:28:39.050 ,4,0,0.,12.0,0.,12.0,0.,12.0,0.,12.0
1979-07-18 03:28:51.050 ,5,1,0.,12.0,0.,12.0,0.,12.0,0.,12.0
1979-07-18 03:29:03.050 ,5,1,0.,12.0,0.,12.0,0.,12.0,0.,12.0
1979-07-18 03:29:15.050 ,5,0,0.,12.0,0.,12.0,0.,12.0,0.,12.0
1979-07-18 03:29:27.050 ,5,0,0.,12.0,0.,12.0,0.,12.0,0.,12.0
1979-07-18 03:29:39.050 ,6,1,0.,12.0,0.,12.0,0.,12.0,0.,12.0
1979-07-18 03:29:51.050 ,6,1,0.,12.0,0.,12.0,0.,12.0,0.,12.0
1979-07-18 03:30:03.050 ,6,0,0.,12.0,0.,12.0,0.,12.0,0.,12.0
1979-07-18 03:30:15.050 ,6,0,0.,12.0,0.,12.0,0.,12.0,0.,12.0
1979-07-18 03:30:27.050 ,7,0,0.,12.0,0.,12.0,0.,12.0,0.,12.0
1979-07-18 03:30:39.050 ,7,0,0.,12.0,0.,12.0,0.,12.0,0.,12.0
1979-07-18 03:30:51.050 ,7,0,0.,12.0,0.,12.0,0.,12.0,0.,12.0
1979-07-18 03:31:03.050 ,7,0,0.,12.0,0.,12.0,0.,12.0,0.,12.0
1979-07-18 03:31:15.050 ,4,1,0.,12.0,0.,12.0,0.,12.0,0.,12.0
1979-07-18 03:31:27.050 ,4,1,0.,12.0,0.,12.0,0.,12.0,0.,12.0
1979-07-18 03:31:39.050 ,0,1,0.,12.0,0.,12.0,0.,12.0,0.,12.0
1979-07-18 03:31:51.050 ,0,1,0.,12.0,0.,12.0,0.,12.0,0.,12.0
1979-07-18 03:32:03.050 ,3,1,0.,12.0,0.,12.0,0.,12.0,0.,12.0
1979-07-18 03:32:15.050 ,3,1,0.,12.0,0.,12.0,0.,12.0,0.,12.0
1979-07-18 03:32:27.050 ,7,1,0.,12.0,0.,12.0,0.,12.0,0.,12.0
1979-07-18 03:32:39.050 ,7,1,0.,12.0,0.,12.0,0.,12.0,0.,12.0
1979-07-18 03:32:51.050 ,4,1,0.,12.0,0.,12.0,0.,12.0,0.,12.0
1979-07-18 03:33:03.050 ,4,1,0.,12.0,0.,12.0,0.,12.0,0.,12.0
1979-07-18 03:33:15.050 ,0,1,0.,12.0,0.,12.0,0.,12.0,0.,12.0
1979-07-18 03:33:27.050 ,0,1,0.,12.0,0.,12.0,0.,12.0,0.,12.0
1979-07-18 03:33:39.050 ,3,1,0.,12.0,0.,12.0,0.,12.0,0.,12.0
1979-07-18 03:33:51.050 ,3,1,0.,12.0,0.,12.0,0.,12.0,0.,12.0
1979-07-18 03:34:03.050 ,7,1,0.,12.0,0.,12.0,0.,12.0,0.,12.0
1979-07-18 03:34:15.050 ,7,1,0.,12.0,0.,12.0,0.,12.0,0.,12.0
1979-07-18 03:34:27.050 ,4,1,0.,12.0,0.,12.0,0.,12.0,0.,12.0
1979-07-18 03:34:39.050 ,4,1,0.,12.0,0.,12.0,0.,12.0,0.,12.0
1979-07-18 03:34:51.050 ,0,1,0.,12.0,0.,12.0,0.,12.0,0.,12.0
1979-07-18 03:35:03.050 ,0,1,0.,12.0,0.,12.0,0.,12.0,0.,12.0
1979-07-18 03:35:15.050 ,3,1,0.,12.0,0.,12.0,0.,12.0,0.,12.0
1979-07-18 03:35:27.050 ,3,1,0.,12.0,0.,12.0,0.,12.0,0.,12.0
1979-07-18 03:35:39.050 ,7,1,0.,12.0,0.,12.0,0.,12.0,0.,12.0
1979-07-18 03:35:51.050 ,7,1,0.,12.0,0.,12.0,0.,12.0,0.,12.0
1979-07-18 03:36:03.050 ,4,1,0.,12.0,0.,12.0,0.,12.0,0.,12.0
1979-07-18 03:36:15.050 ,4,1,0.,12.0,0.,12.0,0.,12.0,0.,12.0
1979-07-18 03:36:27.050 ,0,1,0.,12.0,0.,12.0,0.,12.0,0.,12.0
1979-07-18 03:36:39.050 ,0,1,0.,12.0,0.,12.0,0.,12.0,0.,12.0
1979-07-18 03:36:51.050 ,3,1,0.,12.0,0.,12.0,0.,12.0,0.,12.0
1979-07-18 03:37:03.050 ,3,1,0.,12.0,0.,12.0,0.,12.0,0.,12.0
1979-07-18 03:37:15.050 ,7,1,0.,12.0,0.,12.0,0.,12.0,0.,12.0
1979-07-18 03:37:27.050 ,7,1,0.,12.0,0.,12.0,0.,12.0,0.,12.0
1979-07-18 03:37:39.050 ,4,1,0.,12.0,0.,12.0,0.,12.0,0.,12.0
1979-07-18 03:37:51.050 ,4,1,0.,12.0,0.,12.0,0.,12.0,0.,12.0
1979-07-18 03:38:03.050 ,0,1,0.,12.0,0.,12.0,0.,12.0,0.,12.0
1979-07-18 03:38:15.050 ,0,1,0.,12.0,0.,12.0,0.,12.0,0.,12.0
1979-07-18 03:38:27.050 ,3,1,0.,12.0,0.,12.0,0.,12.0,0.,12.0
1979-07-18 03:38:39.050 ,3,1,0.,12.0,0.,12.0,0.,12.0,0.,12.0
1979-07-18 03:38:51.050 ,7,1,0.,12.0,0.,12.0,0.,12.0,0.,12.0
1979-07-18 03:39:03.050 ,7,1,0.,12.0,0.,12.0,0.,12.0,0.,12.0
1979-07-18 03:39:15.050 ,4,1,0.,12.0,0.,12.0,0.,12.0,0.,12.0
1979-07-18 03:39:27.050 ,4,1,0.,12.0,0.,12.0,0.,12.0,0.,12.0
1979-07-18 03:39:39.050 ,0,1,0.,12.0,0.,12.0,0.,12.0,0.,12.0
1979-07-18 03:39:51.050 ,0,1,0.,12.0,0.,12.0,0.,12.0,0.,12.0
1979-07-18 03:40:03.050 ,3,1,0.,12.0,0.,12.0,0.,12.0,0.,12.0
1979-07-18 03:40:15.050 ,3,1,0.,12.0,0.,12.0,0.,12.0,0.,12.0
1979-07-18 03:40:27.050 ,7,1,0.,12.0,0.,12.0,0.,12.0,0.,12.0
1979-07-18 03:40:39.050 ,7,1,0.,12.0,0.,12.0,0.,12.0,0.,12.0
1979-07-18 03:40:51.050 ,4,1,0.,12.0,0.,12.0,0.,12.0,0.,12.0
1979-07-18 03:41:03.050 ,4,1,0.,12.0,0.,12.0,0.,12.0,0.,12.0
1979-07-18 03:41:15.050 ,0,1,0.,12.0,0.,12.0,0.,12.0,0.,12.0
1979-07-18 03:41:27.050 ,0,1,0.,12.0,0.,12.0,0.,12.0,0.,12.0
1979-07-18 03:41:39.050 ,0,0,0.,12.0,0.,12.0,0.,12.0,0.,12.0
1979-07-18 03:41:51.050 ,0,0,0.,12.0,0.,12.0,0.,12.0,0.,12.0
1979-07-18 03:42:03.050 ,0,0,0.,12.0,0.,12.0,0.,12.0,0.,12.0
1979-07-18 03:42:15.050 ,0,0,0.,12.0,0.,12.0,0.,12.0,0.,12.0
1979-07-18 03:42:27.050 ,5,1,0.,12.0,0.,12.0,0.,12.0,0.,12.0
1979-07-18 03:42:39.050 ,5,1,0.,12.0,0.,12.0,0.,12.0,0.,12.0
1979-07-18 03:42:51.050 ,5,0,0.,12.0,0.,12.0,0.,12.0,0.,12.0
1979-07-18 03:43:03.050 ,5,0,0.,12.0,0.,12.0,0.,12.0,0.,12.0
1979-07-18 03:43:15.050 ,4,1,0.,12.0,0.,12.0,0.,12.0,0.,12.0
1979-07-18 03:43:27.050 ,4,1,0.,12.0,0.,12.0,0.,12.0,0.,12.0
1979-07-18 03:43:39.050 ,4,0,0.,12.0,0.,12.0,0.,12.0,0.,12.0
1979-07-18 03:43:51.050 ,4,0,0.,12.0,0.,12.0,0.,12.0,0.,12.0
1979-07-18 03:44:03.050 ,3,1,0.,12.0,0.,12.0,0.,12.0,0.,12.0
1979-07-18 03:44:15.050 ,3,1,0.,12.0,0.,12.0,0.,12.0,0.,12.0
1979-07-18 03:44:27.050 ,3,0,0.,12.0,0.,12.0,0.,12.0,0.,12.0
1979-07-18 03:44:39.050 ,3,0,0.,12.0,0.,12.0,0.,12.0,0.,12.0
1979-07-18 03:44:51.050 ,2,1,0.,12.0,0.,12.0,0.,12.0,0.,12.0
1979-07-18 03:45:03.050 ,2,1,0.,12.0,0.,12.0,0.,12.0,0.,12.0
1979-07-18 03:45:15.050 ,2,0,0.,12.0,0.,12.0,0.,12.0,0.,12.0
1979-07-18 03:45:27.050 ,2,0,0.,12.0,0.,12.0,0.,12.0,0.,12.0
1979-07-18 03:45:39.050 ,1,1,0.,12.0,0.,12.0,0.,12.0,0.,12.0
1979-07-18 03:45:51.050 ,1,1,0.,12.0,0.,12.0,0.,12.0,0.,12.0
1979-07-18 03:46:03.050 ,1,0,0.,12.0,0.,12.0,0.,12.0,0.,12.0
1979-07-18 03:46:15.050 ,1,0,0.,12.0,0.,12.0,0.,12.0,0.,12.0
1979-07-18 03:46:27.050 ,0,1,0.,12.0,0.,12.0,0.,12.0,0.,12.0
1979-07-18 03:46:39.050 ,0,1,0.,12.0,0.,12.0,0.,12.0,0.,12.0
1979-07-18 03:46:51.050 ,0,0,0.,12.0,0.,12.0,0.,12.0,0.,12.0
1979-07-18 03:47:03.050 ,0,0,0.,12.0,0.,12.0,0.,12.0,0.,12.0
1979-07-18 03:47:15.050 ,0,1,0.,12.0,0.,12.0,0.,12.0,0.,12.0
1979-07-18 03:47:27.050 ,0,1,0.,12.0,0.,12.0,0.,12.0,0.,12.0
1979-07-18 03:47:39.050 ,0,0,0.,12.0,0.,12.0,0.,12.0,0.,12.0
1979-07-18 03:47:51.050 ,0,0,0.,12.0,0.,12.0,0.,12.0,0.,12.0
1979-07-18 03:48:03.050 ,1,1,0.,12.0,0.,12.0,0.,12.0,0.,12.0
1979-07-18 03:48:15.050 ,1,1,0.,12.0,0.,12.0,0.,12.0,0.,12.0
1979-07-18 03:48:27.050 ,1,0,0.,12.0,0.,12.0,0.,12.0,0.,12.0
1979-07-18 03:48:39.050 ,1,0,0.,12.0,0.,12.0,0.,12.0,0.,12.0
1979-07-18 03:48:51.050 ,2,1,0.,12.0,0.,12.0,0.,12.0,0.,12.0
1979-07-18 03:49:03.050 ,2,1,0.,12.0,0.,12.0,0.,12.0,0.,12.0
1979-07-18 03:49:15.050 ,2,0,0.,12.0,0.,12.0,0.,12.0,0.,12.0
1979-07-18 03:49:27.050 ,2,0,0.,12.0,0.,12.0,0.,12.0,0.,12.0
1979-07-18 03:49:39.050 ,3,1,0.,12.0,0.,12.0,0.,12.0,0.,12.0
1979-07-18 03:49:51.050 ,3,1,0.,12.0,0.,12.0,0.,12.0,0.,12.0
1979-07-18 03:50:03.050 ,3,0,0.,12.0,0.,12.0,0.,12.0,0.,12.0
1979-07-18 03:50:15.050 ,3,0,0.,12.0,0.,12.0,0.,12.0,0.,12.0
1979-07-18 03:50:27.050 ,4,1,0.,12.0,0.,12.0,0.,12.0,0.,12.0
1979-07-18 03:50:39.050 ,4,1,0.,12.0,0.,12.0,0.,12.0,0.,12.0
1979-07-18 03:50:51.050 ,4,0,0.,12.0,0.,12.0,0.,12.0,0.,12.0
1979-07-18 03:51:03.050 ,4,0,0.,12.0,0.,12.0,0.,12.0,0.,12.0
1979-07-18 03:51:15.050 ,5,1,0.,12.0,0.,12.0,0.,12.0,0.,12.0
1979-07-18 03:51:27.050 ,5,1,0.,12.0,0.,12.0,0.,12.0,0.,12.0
1979-07-18 03:51:39.050 ,5,0,0.,12.0,0.,12.0,0.,12.0,0.,12.0
1979-07-18 03:51:51.050 ,5,0,0.,12.0,0.,12.0,0.,12.0,0.,12.0
1979-07-18 03:52:03.050 ,6,1,0.,12.0,0.,12.0,0.,12.0,0.,12.0
1979-07-18 03:52:15.050 ,6,1,0.,12.0,0.,12.0,0.,12.0,0.,12.0
1979-07-18 03:52:27.050 ,6,0,0.,12.0,0.,12.0,0.,12.0,0.,12.0
1979-07-18 03:52:39.050 ,6,0,0.,12.0,0.,12.0,0.,12.0,0.,12.0
1979-07-18 03:52:51.050 ,7,1,0.,12.0,0.,12.0,0.,12.0,0.,12.0
1979-07-18 03:53:03.050 ,7,1,0.,12.0,0.,12.0,0.,12.0,0.,12.0
1979-07-18 03:53:15.050 ,7,0,0.,12.0,0.,12.0,0.,12.0,0.,12.0
1979-07-18 03:53:27.050 ,7,0,0.,12.0,0.,12.0,0.,12.0,0.,12.0
1979-07-18 03:53:39.050 ,7,1,0.,12.0,0.,12.0,0.,12.0,0.,12.0
1979-07-18 03:53:51.050 ,7,1,0.,12.0,0.,12.0,0.,12.0,0.,12.0
1979-07-18 03:54:03.050 ,7,0,0.,12.0,0.,12.0,0.,12.0,0.,12.0
1979-07-18 03:54:15.050 ,7,0,0.,12.0,0.,12.0,0.,12.0,0.,12.0
1979-07-18 03:54:27.050 ,6,1,0.,12.0,0.,12.0,0.,12.0,0.,12.0
1979-07-18 03:54:39.050 ,6,1,0.,12.0,0.,12.0,0.,12.0,0.,12.0
1979-07-18 03:54:51.050 ,6,0,1.,12.0,0.,12.0,0.,12.0,0.,12.0
1979-07-18 03:55:03.050 ,6,0,0.,12.0,0.,12.0,0.,12.0,0.,12.0
1979-07-18 03:55:15.050 ,5,1,0.,12.0,0.,12.0,0.,12.0,0.,12.0
1979-07-18 03:55:27.050 ,5,1,0.,12.0,0.,12.0,0.,12.0,0.,12.0
1979-07-18 03:55:39.050 ,5,0,0.,12.0,0.,12.0,0.,12.0,0.,12.0
1979-07-18 03:55:51.050 ,5,0,0.,12.0,0.,12.0,0.,12.0,0.,12.0
1979-07-18 03:56:03.050 ,4,1,0.,12.0,0.,12.0,0.,12.0,0.,12.0
1979-07-18 03:56:15.050 ,4,1,0.,12.0,0.,12.0,0.,12.0,0.,12.0
1979-07-18 03:56:27.050 ,4,0,0.,12.0,0.,12.0,0.,12.0,0.,12.0
1979-07-18 03:56:39.050 ,4,0,0.,12.0,0.,12.0,0.,12.0,0.,12.0
1979-07-18 03:56:51.050 ,3,1,0.,12.0,0.,12.0,0.,12.0,0.,12.0
1979-07-18 03:57:03.050 ,3,1,0.,12.0,0.,12.0,0.,12.0,0.,12.0
1979-07-18 03:57:15.050 ,3,0,0.,12.0,0.,12.0,0.,12.0,0.,12.0
1979-07-18 03:57:27.050 ,3,0,0.,12.0,0.,12.0,0.,12.0,0.,12.0
1979-07-18 03:57:39.050 ,2,1,1.,12.0,0.,12.0,0.,12.0,0.,12.0
1979-07-18 03:57:51.050 ,2,1,0.,12.0,0.,12.0,0.,12.0,0.,12.0
1979-07-18 03:58:03.050 ,2,0,0.,12.0,0.,12.0,0.,12.0,0.,12.0
1979-07-18 03:58:15.050 ,2,0,0.,12.0,0.,12.0,0.,12.0,0.,12.0
1979-07-18 03:58:27.050 ,1,1,0.,12.0,0.,12.0,0.,12.0,0.,12.0
1979-07-18 03:58:39.050 ,1,1,0.,12.0,0.,12.0,0.,12.0,0.,12.0
1979-07-18 03:58:51.050 ,1,0,0.,12.0,0.,12.0,0.,12.0,0.,12.0
1979-07-18 03:59:03.050 ,1,0,0.,12.0,0.,12.0,0.,12.0,0.,12.0
1979-07-18 03:59:15.050 ,0,1,0.,12.0,0.,12.0,0.,12.0,0.,12.0
1979-07-18 03:59:27.050 ,0,1,0.,12.0,0.,12.0,0.,12.0,0.,12.0
1979-07-18 03:59:39.050 ,0,0,0.,12.0,0.,12.0,0.,12.0,0.,12.0
1979-07-18 03:59:51.050 ,0,0,0.,12.0,0.,12.0,0.,12.0,0.,12.0
1979-07-18 04:00:03.050 ,0,1,0.,12.0,0.,12.0,0.,12.0,0.,12.0
1979-07-18 04:00:15.050 ,0,1,0.,12.0,0.,12.0,0.,12.0,0.,12.0
1979-07-18 04:00:27.050 ,0,0,0.,12.0,0.,12.0,0.,12.0,0.,12.0
1979-07-18 04:00:39.050 ,0,0,0.,12.0,0.,12.0,0.,12.0,0.,12.0
1979-07-18 04:00:51.050 ,1,1,0.,12.0,0.,12.0,0.,12.0,0.,12.0
1979-07-18 04:01:03.050 ,1,1,0.,12.0,0.,12.0,0.,12.0,0.,12.0
1979-07-18 04:01:15.050 ,1,0,0.,12.0,0.,12.0,0.,12.0,0.,12.0
1979-07-18 04:01:27.050 ,1,0,0.,12.0,0.,12.0,0.,12.0,0.,12.0
1979-07-18 04:01:39.050 ,2,1,0.,12.0,0.,12.0,0.,12.0,0.,12.0
1979-07-18 04:01:51.050 ,2,1,0.,12.0,0.,12.0,0.,12.0,0.,12.0
1979-07-18 04:02:03.050 ,2,0,0.,12.0,0.,12.0,0.,12.0,0.,12.0
1979-07-18 04:02:15.050 ,2,0,0.,12.0,0.,12.0,0.,12.0,0.,12.0
1979-07-18 04:02:27.050 ,3,1,0.,12.0,0.,12.0,0.,12.0,0.,12.0
1979-07-18 04:02:39.050 ,3,1,0.,12.0,0.,12.0,0.,12.0,0.,12.0
1979-07-18 04:02:51.050 ,3,0,0.,12.0,0.,12.0,0.,12.0,0.,12.0
1979-07-18 04:03:03.050 ,3,0,0.,12.0,0.,12.0,0.,12.0,0.,12.0
1979-07-18 04:03:15.050 ,4,1,2.,12.0,0.,12.0,0.,12.0,0.,12.0
1979-07-18 04:03:27.050 ,4,1,0.,12.0,0.,12.0,0.,12.0,0.,12.0
1979-07-18 04:03:39.050 ,4,0,0.,12.0,0.,12.0,0.,12.0,0.,12.0
1979-07-18 04:03:51.050 ,4,0,1.,12.0,0.,12.0,0.,12.0,0.,12.0
1979-07-18 04:04:03.050 ,5,1,0.,12.0,0.,12.0,0.,12.0,0.,12.0
1979-07-18 04:04:15.050 ,5,1,0.,12.0,0.,12.0,0.,12.0,0.,12.0
1979-07-18 04:04:27.050 ,5,0,0.,12.0,0.,12.0,0.,12.0,0.,12.0
1979-07-18 04:04:39.050 ,5,0,0.,12.0,0.,12.0,0.,12.0,0.,12.0
1979-07-18 04:04:51.050 ,6,1,0.,12.0,0.,12.0,0.,12.0,0.,12.0
1979-07-18 04:05:03.050 ,6,1,0.,12.0,0.,12.0,0.,12.0,0.,12.0
1979-07-18 04:05:15.050 ,6,0,0.,12.0,0.,12.0,0.,12.0,0.,12.0
1979-07-18 04:05:27.050 ,6,0,0.,12.0,0.,12.0,0.,12.0,0.,12.0
1979-07-18 04:05:39.050 ,7,1,0.,12.0,0.,12.0,0.,12.0,0.,12.0
1979-07-18 04:05:51.050 ,7,1,0.,12.0,0.,12.0,0.,12.0,0.,12.0
1979-07-18 04:06:03.050 ,7,0,0.,12.0,0.,12.0,0.,12.0,0.,12.0
1979-07-18 04:06:15.050 ,7,0,0.,12.0,0.,12.0,0.,12.0,0.,12.0
1979-07-18 04:06:27.050 ,7,1,0.,12.0,0.,12.0,0.,12.0,0.,12.0
1979-07-18 04:06:39.050 ,7,1,0.,12.0,0.,12.0,0.,12.0,0.,12.0
1979-07-18 04:06:51.050 ,7,0,0.,12.0,0.,12.0,0.,12.0,0.,12.0
1979-07-18 04:07:03.050 ,7,0,0.,12.0,0.,12.0,0.,12.0,0.,12.0
1979-07-18 04:07:15.050 ,6,1,0.,12.0,0.,12.0,0.,12.0,0.,12.0
1979-07-18 04:07:27.050 ,6,1,0.,12.0,0.,12.0,0.,12.0,0.,12.0
1979-07-18 04:07:39.050 ,6,0,1.,12.0,0.,12.0,0.,12.0,0.,12.0
1979-07-18 04:07:51.050 ,6,0,0.,12.0,0.,12.0,0.,12.0,0.,12.0
1979-07-18 04:08:03.050 ,5,1,0.,12.0,0.,12.0,0.,12.0,0.,12.0
1979-07-18 04:08:15.050 ,5,1,0.,12.0,0.,12.0,0.,12.0,0.,12.0
1979-07-18 04:08:27.050 ,5,0,0.,12.0,0.,12.0,0.,12.0,0.,12.0
1979-07-18 04:08:39.050 ,5,0,0.,12.0,0.,12.0,0.,12.0,0.,12.0
1979-07-18 04:08:51.050 ,4,1,0.,12.0,0.,12.0,0.,12.0,0.,12.0
1979-07-18 04:09:03.050 ,4,1,0.,12.0,0.,12.0,0.,12.0,0.,12.0
1979-07-18 04:09:15.050 ,4,0,1.,12.0,0.,12.0,0.,12.0,0.,12.0
1979-07-18 04:09:27.050 ,4,0,0.,12.0,0.,12.0,0.,12.0,0.,12.0
1979-07-18 04:09:39.050 ,3,1,0.,12.0,0.,12.0,0.,12.0,0.,12.0
1979-07-18 04:09:51.050 ,3,1,0.,12.0,0.,12.0,0.,12.0,0.,12.0
1979-07-18 04:10:03.050 ,3,0,0.,12.0,0.,12.0,0.,12.0,0.,12.0
1979-07-18 04:10:15.050 ,3,0,0.,12.0,0.,12.0,0.,12.0,0.,12.0
1979-07-18 04:10:27.050 ,2,1,0.,12.0,0.,12.0,0.,12.0,0.,12.0
1979-07-18 04:10:39.050 ,2,1,0.,12.0,0.,12.0,0.,12.0,0.,12.0
1979-07-18 04:10:51.050 ,2,0,0.,12.0,0.,12.0,0.,12.0,0.,12.0
1979-07-18 04:11:03.050 ,2,0,0.,12.0,0.,12.0,0.,12.0,0.,12.0
1979-07-18 04:11:15.050 ,1,1,0.,12.0,0.,12.0,0.,12.0,0.,12.0
1979-07-18 04:11:27.050 ,1,1,0.,12.0,0.,12.0,0.,12.0,0.,12.0
1979-07-18 04:11:39.050 ,1,0,0.,12.0,0.,12.0,0.,12.0,0.,12.0
1979-07-18 04:11:51.050 ,1,0,0.,12.0,0.,12.0,0.,12.0,0.,12.0
1979-07-18 04:12:03.050 ,0,1,0.,12.0,0.,12.0,0.,12.0,0.,12.0
1979-07-18 04:12:15.050 ,0,1,0.,12.0,0.,12.0,0.,12.0,0.,12.0
1979-07-18 04:12:27.050 ,0,0,0.,12.0,0.,12.0,0.,12.0,0.,12.0
1979-07-18 04:12:39.050 ,0,0,0.,12.0,0.,12.0,0.,12.0,0.,12.0
1979-07-18 04:12:51.050 ,0,1,0.,12.0,0.,12.0,0.,12.0,0.,12.0
1979-07-18 04:13:03.050 ,0,1,0.,12.0,0.,12.0,0.,12.0,0.,12.0
1979-07-18 04:13:15.050 ,0,0,0.,12.0,0.,12.0,0.,12.0,0.,12.0
1979-07-18 04:13:27.050 ,0,0,0.,12.0,0.,12.0,0.,12.0,0.,12.0
1979-07-18 04:13:39.050 ,1,1,1.,12.0,0.,12.0,0.,12.0,0.,12.0
1979-07-18 04:13:51.050 ,1,1,0.,12.0,0.,12.0,0.,12.0,0.,12.0
1979-07-18 04:14:03.050 ,1,0,0.,12.0,0.,12.0,0.,12.0,0.,12.0
1979-07-18 04:14:15.050 ,1,0,0.,12.0,0.,12.0,0.,12.0,0.,12.0
1979-07-18 04:14:27.050 ,2,1,0.,12.0,0.,12.0,0.,12.0,0.,12.0
1979-07-18 04:14:39.050 ,2,1,0.,12.0,0.,12.0,0.,12.0,0.,12.0
1979-07-18 04:14:51.050 ,2,0,0.,12.0,0.,12.0,0.,12.0,0.,12.0
1979-07-18 04:15:03.050 ,2,0,0.,12.0,0.,12.0,0.,12.0,0.,12.0
1979-07-18 04:15:15.050 ,3,1,0.,12.0,0.,12.0,0.,12.0,0.,12.0
1979-07-18 04:15:27.050 ,3,1,0.,12.0,0.,12.0,0.,12.0,0.,12.0
1979-07-18 04:15:39.050 ,3,0,0.,12.0,0.,12.0,0.,12.0,0.,12.0
1979-07-18 04:15:51.050 ,3,0,0.,12.0,0.,12.0,0.,12.0,0.,12.0
1979-07-18 04:16:03.050 ,4,1,0.,12.0,0.,12.0,0.,12.0,0.,12.0
1979-07-18 04:16:15.050 ,4,1,0.,12.0,0.,12.0,0.,12.0,0.,12.0
1979-07-18 04:16:27.050 ,4,0,0.,12.0,0.,12.0,0.,12.0,0.,12.0
1979-07-18 04:16:39.050 ,4,0,0.,12.0,0.,12.0,0.,12.0,0.,12.0
1979-07-18 04:16:51.050 ,5,1,0.,12.0,0.,12.0,0.,12.0,0.,12.0
1979-07-18 04:17:03.050 ,5,1,0.,12.0,0.,12.0,0.,12.0,0.,12.0